Waarnemingen

Advertentie
Mijn weer
Lyon/Bron, Frankrijk (7480): temperatuur & dauwpunt: 17.07.2019 11:00:00 - 23.07.2019 11:00:00 (CEST)Lyon/Bron, Frankrijk (7480): temperatuur 5cm: 17.07.2019 11:00:00 - 23.07.2019 11:00:00 (CEST)Lyon/Bron, Frankrijk (7480): temperatuur -20cm: 17.07.2019 11:00:00 - 23.07.2019 11:00:00 (CEST)Lyon/Bron, Frankrijk (7480): windsnelheid & windstoten: 17.07.2019 11:00:00 - 23.07.2019 11:00:00 (CEST)Lyon/Bron, Frankrijk (7480): windrichting: 17.07.2019 11:00:00 - 23.07.2019 11:00:00 (CEST)Lyon/Bron, Frankrijk (7480): luchtdruk: 17.07.2019 11:00:00 - 23.07.2019 11:00:00 (CEST)Lyon/Bron, Frankrijk (7480): zicht: 17.07.2019 11:00:00 - 23.07.2019 11:00:00 (CEST)Lyon/Bron, Frankrijk (7480): Zonneschijnduur: 17.07.2019 11:00:00 - 23.07.2019 11:00:00 (CEST)Lyon/Bron, Frankrijk (7480): neerslag: 17.07.2019 11:00:00 - 23.07.2019 11:00:00 (CEST)
Datum & Tijd tt [°C] td [°C] tt 5cm [°C] tt -20cm [°C] ff [km/u] ff [kn] fx [km/u] fx [kn] dd ppp [hPa] vv [km] sd [min] rr [mm]
23.07.2019 11:00:00 30,8 16,8 37,1 28,4 3 2 11 6 ZZO 1017,8 23 60 0,0
23.07.2019 10:00:00 29,0 16,9 33,3 28,5 5 3 8 5 NW 1018,2 16 60 0,0
23.07.2019 09:00:00 26,5 17,0 29,9 28,7 4 2 8 5 ZW 1018,7 20 60 0,0
23.07.2019 08:00:00 24,5 16,7 20,8 28,9 3 2 6 3 ZZW 1019,0 19 60 0,0
23.07.2019 07:00:00 21,6 16,8 17,7 29,1 0 0 3 1 N 1019,3 20 19 0,0
23.07.2019 06:00:00 21,2 16,6 17,5 29,4 0 0 3 2 N 1019,3 19 0 0,0
23.07.2019 05:00:00 22,2 16,5 19,4 29,6 3 1 7 4 ZO 1019,4 26 0 0,0
23.07.2019 04:00:00 22,8 16,8 18,7 29,9 7 4 11 6 Z 1019,3 30 0 0,0
23.07.2019 03:00:00 23,2 16,7 19,1 30,1 3 1 5 3 ZZO 1019,2 31 0 0,0
23.07.2019 02:00:00 24,4 16,9 19,8 30,3 0 0 9 5 N 1019,3 34 0 0,0
23.07.2019 01:00:00 25,3 17,0 20,7 30,4 6 3 9 5 ZW 1019,4 36 0 0,0
23.07.2019 00:00:00 25,7 16,5 21,2 30,5 4 2 8 4 N 1019,3 27 0 0,0
22.07.2019 23:00:00 28,0 16,6 23,2 30,6 4 2 7 4 N 1019,1 25 0 0,0
22.07.2019 22:00:00 29,9 16,3 26,1 30,6 6 3 11 6 N 1018,9 37 0 0,0
22.07.2019 21:00:00 31,9 15,4 29,5 30,4 9 5 18 10 NNO 1018,4 49 31 0,0
22.07.2019 20:00:00 33,4 14,9 35,3 30,2 13 7 22 12 N 1018,2 36 60 0,0
22.07.2019 19:00:00 34,2 14,1 38,2 29,8 12 7 21 11 N 1018,3 20 60 0,0
22.07.2019 18:00:00 34,4 14,8 40,6 29,4 11 6 27 15 N 1018,6 38 60 0,0
22.07.2019 17:00:00 34,3 15,2 40,7 29,0 9 5 27 14 N 1019,2 47 60 0,0
22.07.2019 16:00:00 34,6 15,5 41,8 28,5 11 6 26 14 NNO 1019,5 56 60 0,0
22.07.2019 15:00:00 33,9 15,4 40,5 28,2 10 6 24 13 N 1020,2 20 60 0,0
22.07.2019 14:00:00 33,2 15,2 39,9 27,9 13 7 32 17 NNO 1020,7 51 60 0,0
22.07.2019 13:00:00 31,7 15,2 38,5 27,8 14 8 22 12 N 1021,4 46 60 0,0
22.07.2019 12:00:00 30,1 15,4 36,8 27,7 11 6 21 11 N 1022,0 44 60 0,0
22.07.2019 11:00:00 28,7 15,2 33,7 27,8 6 3 16 9 NNW 1022,3 41 60 0,0
22.07.2019 10:00:00 26,5 14,3 29,9 27,9 9 5 17 9 N 1022,5 20 58 0,0
22.07.2019 09:00:00 24,3 14,4 25,9 28,1 8 4 18 10 N 1022,7 53 41 0,0
22.07.2019 08:00:00 23,3 14,0 21,3 28,3 8 4 14 8 NNW 1022,5 40 19 0,0
22.07.2019 07:00:00 22,3 13,6 21,1 28,5 6 3 14 8 N 1022,3 56 0 0,0
22.07.2019 06:00:00 23,1 13,8 21,5 28,7 8 4 10 5 N 1022,3 60 0 0,0
22.07.2019 05:00:00 23,6 14,3 19,9 28,9 8 4 11 6 N 1022,1 57 0 0,0
22.07.2019 04:00:00 24,4 14,8 22,3 29,1 3 1 14 7 NNO 1021,7 49 0 0,0
22.07.2019 03:00:00 24,4 15,9 20,5 29,3 8 4 9 5 NNW 1021,3 48 0 0,0
22.07.2019 02:00:00 24,6 16,1 20,8 29,5 4 2 9 5 WNW 1021,3 49 0 0,0
22.07.2019 01:00:00 25,6 16,4 22,3 29,6 3 1 13 7 NNW 1021,1 47 0 0,0
22.07.2019 00:00:00 26,4 16,3 23,4 29,8 6 4 13 7 N 1021,0 48 0 0,0
21.07.2019 23:00:00 27,3 16,6 23,5 29,8 9 5 13 7 N 1020,7 51 0 0,0
21.07.2019 22:00:00 28,5 16,7 25,7 29,7 7 4 13 7 N 1020,0 56 0 0,0
21.07.2019 21:00:00 30,1 16,5 29,0 29,6 10 5 20 11 NNO 1019,1 59 14 0,0
21.07.2019 20:00:00 31,5 16,3 33,5 29,3 13 7 21 12 NNO 1018,9 20 60 0,0
21.07.2019 19:00:00 32,2 16,5 35,7 29,0 10 5 21 12 NNO 1018,7 49 60 0,0
21.07.2019 18:00:00 32,5 16,8 37,8 28,5 12 6 23 12 N 1018,6 60 58 0,0
21.07.2019 17:00:00 32,6 16,8 39,6 28,1 8 5 32 17 NNW 1019,1 60 60 0,0
21.07.2019 16:00:00 32,1 16,8 38,9 27,7 10 6 25 13 NW 1019,5 48 60 0,0
21.07.2019 15:00:00 31,2 16,8 37,9 27,3 11 6 25 14 NNW 1020,0 48 60 0,0
21.07.2019 14:00:00 30,4 17,5 37,8 27,1 12 6 20 11 NNW 1020,5 47 60 0,0
21.07.2019 13:00:00 29,5 17,7 36,8 26,8 8 4 26 14 NNO 1020,9 47 60 0,0
21.07.2019 12:00:00 28,4 17,9 34,9 26,8 11 6 22 12 N 1021,1 18 60 0,0
21.07.2019 11:00:00 27,5 18,8 32,8 26,8 8 4 19 11 NNO 1021,2 44 58 0,0
21.07.2019 10:00:00 25,4 18,6 30,4 26,9 12 6 18 10 N 1021,2 26 60 0,0
21.07.2019 09:00:00 23,8 18,7 23,7 27,1 8 4 13 7 NNW 1020,9 13 49 0,0
21.07.2019 08:00:00 22,0 19,0 21,0 27,2 3 1 4 2 NW 1020,9 16 54 0,0
21.07.2019 07:00:00 20,7 19,2 19,8 27,3 0 0 7 4 N 1020,5 13 3 0,0
21.07.2019 06:00:00 20,7 19,4 19,6 27,5 6 3 9 5 N 1020,1 10 0 0,0
21.07.2019 05:00:00 20,9 19,0 19,8 27,6 2 1 7 4 NNO 1019,7 15 0 0,0
21.07.2019 04:00:00 21,0 19,3 18,7 27,9 4 2 10 5 ONO 1019,5 17 0 0,0
21.07.2019 03:00:00 21,5 19,1 19,2 28,0 6 3 9 5 NO 1019,5 26 0 0,4
21.07.2019 02:00:00 21,8 17,4 19,9 28,1 4 2 13 7 ZO 1019,5 19 0 0,0
21.07.2019 01:00:00 22,1 17,0 21,1 28,2 6 3 41 22 NO 1018,8 57 0 0,0
21.07.2019 00:00:00 23,3 18,0 22,2 28,3 5 3 44 24 O 1018,1 38 0 0,0
20.07.2019 23:00:00 25,1 17,6 23,1 28,3 3 2 21 11 ZZO 1017,8 29 0 0,0
20.07.2019 22:00:00 24,5 17,5 23,9 28,3 13 7 42 23 NNO 1016,3 20 0 0,0
20.07.2019 21:00:00 28,7 15,6 27,8 28,3 17 9 31 17 Z 1014,6 39 0 0,0
20.07.2019 20:00:00 29,1 15,2 28,4 28,1 19 10 41 22 Z 1014,4 41 0 0,0
20.07.2019 19:00:00 30,1 14,6 30,1 28,0 22 12 46 25 Z 1014,3 46 24 0,0
20.07.2019 18:00:00 31,7 13,9 35,0 27,7 30 16 50 27 Z 1014,2 58 58 0,0
20.07.2019 17:00:00 30,8 12,7 33,2 27,6 32 17 55 30 ZZW 1014,5 60 41 0,0
20.07.2019 16:00:00 31,5 11,3 31,3 27,4 32 18 49 26 Z 1014,7 41 26 0,0
20.07.2019 15:00:00 29,8 11,8 31,2 27,2 29 16 51 27 Z 1014,5 40 25 0,0
20.07.2019 14:00:00 29,6 12,5 28,1 27,1 32 18 49 27 Z 1015,5 20 8 0,0
20.07.2019 13:00:00 28,4 11,9 29,1 27,0 27 15 44 24 Z 1015,4 25 9 0,0
20.07.2019 12:00:00 30,4 11,4 32,6 27,0 31 17 46 25 ZZW 1015,7 11 40 0,0
20.07.2019 11:00:00 29,3 11,8 32,7 27,0 31 17 48 26 Z 1015,2 8 60 0,0
20.07.2019 10:00:00 27,7 10,8 28,5 27,2 30 16 55 30 ZZW 1015,7 8 55 0,0
20.07.2019 09:00:00 25,8 11,9 26,8 27,4 26 14 49 26 Z 1014,4 9 60 0,0
20.07.2019 08:00:00 23,2 14,7 20,4 27,6 20 11 32 17 Z 1014,3 8 56 0,0
20.07.2019 07:00:00 21,4 13,8 19,2 27,8 14 8 29 15 Z 1014,2 8 3 0,0
20.07.2019 06:00:00 21,4 13,1 19,7 28,0 13 7 29 15 Z 1014,1 53 0 0,0
20.07.2019 05:00:00 22,0 12,0 19,8 28,2 16 8 24 13 Z 1013,8 58 0 0,0
20.07.2019 04:00:00 22,4 11,8 20,7 28,4 16 9 34 19 ZZW 1013,6 57 0 0,0
20.07.2019 03:00:00 23,2 11,6 21,5 28,7 16 9 28 15 ZZW 1013,4 59 0 0,0
20.07.2019 02:00:00 23,9 12,2 22,1 28,9 14 8 27 14 Z 1013,1 55 0 0,0
20.07.2019 01:00:00 24,2 12,8 19,8 29,0 9 5 17 9 Z 1013,5 44 0 0,0
20.07.2019 00:00:00 24,0 12,9 20,6 29,1 6 3 12 6 OZO 1013,4 55 0 0,0
19.07.2019 23:00:00 25,0 12,6 21,7 29,2 7 4 11 6 OZO 1013,2 56 0 0,0
19.07.2019 22:00:00 26,9 12,5 24,0 29,2 8 4 15 8 O 1013,0 54 0 0,0
19.07.2019 21:00:00 29,1 11,6 27,4 29,0 9 5 19 10 ONO 1012,5 56 30 0,0
19.07.2019 20:00:00 30,9 10,8 32,3 28,8 10 5 23 12 O 1012,3 41 60 0,0
19.07.2019 19:00:00 31,1 11,0 36,7 28,4 13 7 20 11 N 1012,6 52 60 0,0
19.07.2019 18:00:00 31,7 8,6 37,7 28,0 8 4 17 9 ZZW 1013,0 60 60 0,0
19.07.2019 17:00:00 30,7 11,1 36,6 27,5 6 3 19 10 NNO 1013,4 60 60 0,0
19.07.2019 16:00:00 30,5 11,5 37,9 27,0 9 5 22 12 WZW 1014,0 48 60 0,0
19.07.2019 15:00:00 29,4 12,3 35,8 26,6 7 4 24 13 N 1014,7 46 60 0,0
19.07.2019 14:00:00 28,4 12,7 34,5 26,3 8 4 22 12 ZO 1015,3 41 60 0,0
19.07.2019 13:00:00 27,2 12,8 34,7 26,1 10 5 18 10 WNW 1016,1 47 60 0,0
19.07.2019 12:00:00 26,4 12,8 33,7 26,0 9 5 18 10 NNO 1016,6 50 60 0,0
19.07.2019 11:00:00 25,1 12,7 31,7 26,1 6 4 16 9 NNO 1017,0 60 60 0,0
19.07.2019 10:00:00 23,4 12,4 28,9 26,2 7 4 14 8 N 1017,4 15 60 0,0
19.07.2019 09:00:00 22,8 12,1 26,6 26,4 4 2 9 5 N 1017,4 55 60 0,0
19.07.2019 08:00:00 21,1 10,9 16,4 26,6 2 1 6 3 O 1017,3 35 60 0,0
19.07.2019 07:00:00 17,4 10,7 13,3 26,8 4 2 5 3 OZO 1017,4 32 0 0,0
19.07.2019 06:00:00 17,5 10,4 14,4 27,1 2 1 6 4 ZZO 1017,2 47 0 0,0
19.07.2019 05:00:00 18,5 10,1 16,3 27,3 8 4 11 6 OZO 1017,0 39 0 0,0
19.07.2019 04:00:00 20,3 10,1 14,9 27,5 8 4 13 7 WNW 1016,6 57 0 0,0
19.07.2019 03:00:00 18,7 9,5 13,7 27,7 3 2 5 3 W 1016,7 56 0 0,0
19.07.2019 02:00:00 19,2 10,2 14,2 28,0 3 2 7 4 NW 1016,5 59 0 0,0
19.07.2019 01:00:00 21,4 9,6 17,6 28,1 6 4 11 6 NNW 1016,2 59 0 0,0
19.07.2019 00:00:00 22,4 9,2 18,9 28,3 7 4 14 8 N 1015,7 60 0 0,0
18.07.2019 23:00:00 23,3 8,9 19,4 28,4 9 5 10 6 NNW 1015,3 59 0 0,0
18.07.2019 22:00:00 24,4 7,9 20,4 28,4 6 3 19 11 N 1014,7 60 0 0,0
18.07.2019 21:00:00 26,5 7,0 25,4 28,3 13 7 25 13 N 1013,6 35 6 0,0
18.07.2019 20:00:00 27,7 7,5 27,7 28,2 19 10 33 18 NNW 1012,9 26 11 0,0
18.07.2019 19:00:00 29,3 9,9 31,6 28,0 18 10 29 16 N 1012,2 22 31 0,0
18.07.2019 18:00:00 29,1 10,7 31,9 27,7 18 10 30 16 N 1012,0 23 17 0,0
18.07.2019 17:00:00 30,2 10,7 32,0 27,5 14 8 26 14 NNW 1011,9 18 23 0,0
18.07.2019 16:00:00 29,8 9,8 33,1 27,2 7 4 33 18 N 1012,2 58 12 0,0
18.07.2019 15:00:00 29,7 9,2 34,1 26,8 14 8 24 13 N 1012,1 20 25 0,0
18.07.2019 14:00:00 29,6 10,2 36,9 26,6 10 5 22 12 N 1012,4 60 60 0,0
18.07.2019 13:00:00 28,7 10,8 36,0 26,4 10 6 22 12 NW 1012,8 48 58 0,0
18.07.2019 12:00:00 27,7 11,7 34,3 26,4 8 4 20 11 N 1013,2 37 60 0,0
18.07.2019 11:00:00 26,1 11,1 30,8 26,5 8 4 14 8 N 1013,3 30 60 0,0
18.07.2019 10:00:00 24,4 10,7 27,9 26,6 3 2 9 5 NNW 1013,7 22 57 0,0
18.07.2019 09:00:00 22,6 10,1 24,1 26,8 5 3 14 7 O 1013,8 55 58 0,0
18.07.2019 08:00:00 21,2 10,4 19,7 27,0 8 4 12 6 O 1013,7 18 49 0,0
18.07.2019 07:00:00 20,6 9,8 15,4 27,2 2 1 11 6 Z 1013,3 44 21 0,0
18.07.2019 06:00:00 17,9 10,5 12,5 27,4 2 1 4 2 W 1013,2 47 0 0,0
18.07.2019 05:00:00 17,5 10,4 12,7 27,7 2 1 7 4 W 1013,0 53 0 0,0
18.07.2019 04:00:00 18,5 9,6 13,9 27,9 3 1 6 3 Z 1012,7 52 0 0,0
18.07.2019 03:00:00 19,6 9,5 14,7 28,2 0 0 5 3 N 1012,8 51 0 0,0
18.07.2019 02:00:00 20,4 9,3 16,5 28,4 2 1 6 4 ZW 1012,9 52 0 0,0
18.07.2019 01:00:00 21,6 8,8 16,9 28,5 2 1 8 4 ZZW 1012,7 59 0 0,0
18.07.2019 00:00:00 23,4 7,9 19,4 28,7 3 2 10 5 ZZW 1012,5 59 0 0,0
17.07.2019 23:00:00 24,3 9,1 21,3 28,8 7 4 14 8 N 1012,1 59 0 0,0
17.07.2019 22:00:00 25,4 10,4 22,1 28,7 9 5 15 8 N 1011,8 59 0 0,0
17.07.2019 21:00:00 27,6 9,9 25,6 28,7 9 5 19 11 NNO 1011,0 59 14 0,0
17.07.2019 20:00:00 29,4 9,0 30,4 28,4 14 7 25 13 NNO 1010,6 51 35 0,0
17.07.2019 19:00:00 30,3 8,7 33,8 28,1 20 11 33 18 NNO 1010,4 35 54 0,0
17.07.2019 18:00:00 31,1 9,3 33,9 27,7 14 8 26 14 NO 1010,8 20 52 0,0
17.07.2019 17:00:00 30,8 9,1 33,6 27,2 14 8 25 14 N 1011,2 60 54 0,0
17.07.2019 16:00:00 30,5 9,4 38,4 26,8 9 5 27 15 NO 1011,7 29 60 0,0
17.07.2019 15:00:00 30,0 9,0 36,3 26,3 9 5 31 17 NO 1012,3 34 60 0,0
17.07.2019 14:00:00 29,6 8,6 37,2 26,0 9 5 22 12 NNO 1012,7 41 60 0,0
17.07.2019 13:00:00 28,3 10,0 34,6 25,9 13 7 25 13 NNO 1013,4 20 60 0,0
17.07.2019 12:00:00 26,8 10,5 32,6 25,8 9 5 22 12 NNO 1013,8 54 60 0,0
17.07.2019 11:00:00 25,5 10,1 31,1 25,9 6 3 16 9 NNW 1014,2 60 60 0,0

tt = temperatuur
td = dauwpunt
tt 5cm = temperatuur 5cm
tt -20cm = temperatuur -20cm
ff = windsnelheid
fx = windstoten
dd = windrichting
ppp = luchtdruk
vv = zicht
sd = Zonneschijnduur
rr = neerslag

Weerstations in de omgeving